Location: Abraham Lincoln Continuation High School
(33.9711°N, 117.3662°W)
Time: 05:03:50
(UTC+00:00)

USA 267 - Pass Details

Date: 21 September 2020
Orbit: 1101 x 1106 km, 123.0° (Epoch: 22 September)

Event Time Altitude Azimuth Distance (km) Brightness Sun altitude
Rises 10:03:45 0° 40° (NE) 3,921 7.0 -42.2°
Reaches altitude 10° 10:06:15 10° 38° (NE) 2,962 6.1 -41.8°
Enters shadow 10:09:48 35° 28° (NNE) 1,703 4.5 -41.2°
